Hourly Data Report for September 02, 2017

All times are specified in Local Standard Time (LST). Add 1 hour to adjust for Daylight Saving Time where and when it is observed.

ALGONQUIN PARK EAST GATE
ONTARIO

45°32'00.000" N
78°16'00.000" W
397.00 m
6080192
71581
TNK

Download Data

Hourly Data (September 2017)
Hourly Data Report for September 2, 2017
Temp Definition
°C
Dew Point Temp Definition
°C
Rel Hum Definition
%
Wind Dir Definition
10's deg

Wind Spd Definition
km/h
Visibility Definition
km
Stn Press Definition
kPa
Hmdx Definition


Wind Chill Definition


Weather Definition


TIME
00:00 1.8 0.6 92   0   97.62     LegendNANA
01:00 1.4 0.5 94   0   97.61     LegendNANA
02:00 1.2 0.5 95   0   97.61     LegendNANA
03:00 1.6 0.9 95 0 1   97.63     LegendNANA
04:00 1.3 0.6 95   0   97.62     LegendNANA
05:00 0.7 0.1 96 4 1   97.61     LegendNANA
06:00 -0.1 -0.7 96 0 1   97.61   0 LegendNANA
07:00 2.1 1.4 96   0   97.59     LegendNANA
08:00 7.3 6.3 93   0   97.56     LegendNANA
09:00 12.1 6.3 68 18 3   97.56     LegendNANA
10:00 14.3 5.6 56 22 7   97.54     LegendNANA
11:00 16.1 5.1 48 14 5   97.47     LegendNANA
12:00 17.2 2.3 37 17 5   97.41     LegendNANA
13:00 18.6 2.9 35 13 8   97.30     LegendNANA
14:00 19.5 2.9 33 13 10   97.21     LegendNANA
15:00 19.8 2.1 31 13 9   97.17     LegendNANA
16:00 19.4 2.2 32 14 6   97.13     LegendNANA
17:00 18.6 3.3 36 13 8   97.07     LegendNANA
18:00 16.0 5.9 51 13 4   97.03     LegendNANA
19:00 12.0 6.7 70 0 1   97.00     LegendNANA
20:00 10.1 6.7 79 11 2   97.02     LegendNANA
21:00 8.7 5.9 83   0   97.01     LegendNANA
22:00 8.3 5.7 84   0   96.94     LegendNANA
23:00 8.4 6.3 87   0   96.87     LegendNANA

Notes on Data Quality.

Legend

  • E = Estimated
  • M = Missing
  • NA = Not Available
  • ‡ = Partner data that is not subject to review by the National Climate Archives
Date modified: